| time (UTC) | temp F | wind direction | speed MPH | gust MPH | rain 1hr in | rain 24hr in | rain mn in | humidity % | barometer mb |
| 20260507050052 | 52 | 78 | 0.0 | 3.0 | 0.00 | 0.44 | 0.00 | 85 | 1009.2 |
| 20260507044536 | 52 | 87 | 1.0 | 3.0 | 0.00 | 0.44 | 0.44 | 86 | 1009.0 |
| 20260507043027 | 52 | 89 | 0.0 | 2.0 | 0.00 | 0.44 | 0.44 | 86 | 1009.3 |
| 20260507041527 | 52 | 74 | 0.0 | 4.0 | 0.00 | 0.44 | 0.44 | 85 | 1008.7 |
| 20260507040024 | 52 | 259 | 2.0 | 6.0 | 0.00 | 0.44 | 0.44 | 85 | 1007.8 |
| 20260507034529 | 52 | 174 | 1.0 | 4.0 | 0.00 | 0.44 | 0.44 | 85 | 1008.7 |
| 20260507033021 | 52 | 214 | 0.0 | 3.0 | 0.00 | 0.44 | 0.44 | 86 | 1009.0 |
| 20260507031514 | 53 | 104 | 1.0 | 3.0 | 0.00 | 0.44 | 0.44 | 86 | 1008.9 |
| 20260507030013 | 53 | 104 | 2.0 | 10.0 | 0.00 | 0.44 | 0.44 | 85 | 1008.3 |
| 20260507024516 | 54 | 137 | 0.0 | 6.0 | 0.00 | 0.44 | 0.44 | 85 | 1008.6 |
| 20260507023010 | 54 | 269 | 1.0 | 4.0 | 0.00 | 0.44 | 0.44 | 86 | 1008.3 |
| 20260507021518 | 55 | 70 | 1.0 | 4.0 | 0.00 | 0.44 | 0.44 | 86 | 1008.4 |
| 20260507020019 | 55 | 302 | 0.0 | 5.0 | 0.00 | 0.44 | 0.44 | 85 | 1008.6 |
| 20260507014501 | 56 | 139 | 2.0 | 7.0 | 0.00 | 0.44 | 0.44 | 84 | 1008.6 |
| 20260507013101 | 56 | 115 | 2.0 | 7.0 | 0.00 | 0.44 | 0.44 | 85 | 1008.6 |
| 20260507011603 | 56 | 59 | 2.0 | 3.0 | 0.00 | 0.44 | 0.44 | 85 | 1008.3 |
| 20260507010056 | 56 | 139 | 2.0 | 8.0 | 0.00 | 0.44 | 0.44 | 85 | 1008.3 |
| 20260507004556 | 57 | 53 | 0.0 | 8.0 | 0.00 | 0.44 | 0.44 | 86 | 1007.9 |
| 20260507003055 | 58 | 234 | 2.0 | 13.0 | 0.00 | 0.44 | 0.44 | 86 | 1007.7 |
| 20260507001600 | 59 | 90 | 2.0 | 4.0 | 0.00 | 0.44 | 0.44 | 88 | 1007.1 |
| 20260507000053 | 59 | 119 | 1.0 | 8.0 | 0.00 | 0.44 | 0.44 | 87 | 1006.7 |
| 20260506234604 | 60 | 170 | 2.0 | 9.0 | 0.00 | 0.44 | 0.44 | 86 | 1006.3 |
| 20260506233045 | 62 | 94 | 0.0 | 4.0 | 0.00 | 0.44 | 0.44 | 92 | 1005.9 |
| 20260506231543 | 62 | 99 | 1.0 | 6.0 | 0.00 | 0.44 | 0.44 | 94 | 1005.6 |
| 20260506230038 | 62 | 85 | 1.0 | 4.0 | 0.00 | 0.44 | 0.44 | 94 | 1005.4 |
| 20260506224542 | 62 | 69 | 0.0 | 0.0 | 0.00 | 0.44 | 0.44 | 94 | 1005.3 |
| 20260506223037 | 63 | 69 | 0.0 | 0.0 | 0.00 | 0.44 | 0.44 | 93 | 1005.4 |
| 20260506221536 | 63 | 107 | 0.0 | 0.0 | 0.00 | 0.44 | 0.44 | 93 | 1005.1 |
| 20260506220035 | 63 | 107 | 0.0 | 4.0 | 0.00 | 0.44 | 0.44 | 93 | 1005.0 |
| 20260506214532 | 63 | 69 | 0.0 | 2.0 | 0.00 | 0.44 | 0.44 | 92 | 1004.8 |
| 20260506213029 | 64 | 88 | 2.0 | 6.0 | 0.00 | 0.44 | 0.44 | 92 | 1004.5 |
| 20260506211528 | 64 | 18 | 0.0 | 3.0 | 0.00 | 0.44 | 0.44 | 92 | 1004.3 |
| 20260506210030 | 64 | 38 | 0.0 | 3.0 | 0.00 | 0.44 | 0.44 | 91 | 1004.2 |
| 20260506204525 | 65 | 158 | 0.0 | 3.0 | 0.00 | 0.44 | 0.44 | 91 | 1004.2 |
| 20260506203024 | 65 | 115 | 2.0 | 7.0 | 0.00 | 0.44 | 0.44 | 91 | 1004.2 |
| 20260506201516 | 64 | 79 | 4.0 | 9.0 | 0.00 | 0.44 | 0.44 | 93 | 1004.2 |
| 20260506200014 | 63 | 93 | 1.0 | 12.0 | 0.00 | 0.44 | 0.44 | 94 | 1004.3 |
| 20260506194512 | 63 | 103 | 1.0 | 9.0 | 0.00 | 0.44 | 0.44 | 95 | 1004.3 |
| 20260506193012 | 62 | 93 | 1.0 | 9.0 | 0.00 | 0.44 | 0.44 | 96 | 1004.3 |
| 20260506191507 | 62 | 94 | 2.0 | 9.0 | 0.00 | 0.44 | 0.44 | 96 | 1004.5 |
| 20260506190007 | 61 | 29 | 3.0 | 9.0 | 0.00 | 0.44 | 0.44 | 96 | 1004.6 |
| 20260506184502 | 61 | 76 | 2.0 | 8.0 | 0.01 | 0.44 | 0.44 | 97 | 1004.7 |
| 20260506183001 | 61 | 112 | 2.0 | 8.0 | 0.02 | 0.44 | 0.44 | 97 | 1004.7 |
| 20260506181502 | 60 | 80 | 1.0 | 4.0 | 0.05 | 0.44 | 0.44 | 97 | 1005.0 |
| 20260506180003 | 60 | 67 | 1.0 | 7.0 | 0.09 | 0.44 | 0.44 | 96 | 1005.0 |
| 20260506174605 | 60 | 115 | 3.0 | 10.0 | 0.09 | 0.43 | 0.43 | 96 | 1005.0 |
| 20260506173111 | 60 | 105 | 2.0 | 5.0 | 0.09 | 0.42 | 0.42 | 96 | 1005.0 |
| 20260506171559 | 60 | 105 | 1.0 | 6.0 | 0.10 | 0.39 | 0.39 | 96 | 1005.0 |
| 20260506170050 | 60 | 91 | 3.0 | 7.0 | 0.06 | 0.35 | 0.35 | 96 | 1005.2 |
| 20260506164551 | 60 | 112 | 1.0 | 8.0 | 0.05 | 0.34 | 0.34 | 96 | 1005.1 |
| 20260506163042 | 60 | 75 | 0.0 | 7.0 | 0.04 | 0.32 | 0.32 | 95 | 1005.1 |
| 20260506161546 | 60 | 34 | 0.0 | 3.0 | 0.03 | 0.28 | 0.28 | 95 | 1005.2 |
| 20260506160044 | 60 | 109 | 0.0 | 3.0 | 0.07 | 0.28 | 0.28 | 95 | 1005.1 |
| 20260506154536 | 60 | 188 | 0.0 | 5.0 | 0.11 | 0.28 | 0.28 | 95 | 1005.0 |
| 20260506153035 | 60 | 252 | 0.0 | 5.0 | 0.14 | 0.28 | 0.28 | 96 | 1005.1 |
| 20260506151545 | 60 | 132 | 1.0 | 6.0 | 0.14 | 0.26 | 0.26 | 95 | 1005.4 |
| 20260506150034 | 60 | 42 | 1.0 | 6.0 | 0.12 | 0.22 | 0.22 | 95 | 1005.8 |
| 20260506144532 | 60 | 101 | 0.0 | 4.0 | 0.09 | 0.17 | 0.17 | 95 | 1005.6 |
| 20260506143044 | 60 | 196 | 0.0 | 3.0 | 0.06 | 0.14 | 0.14 | 95 | 1005.2 |
| 20260506141532 | 60 | 200 | 0.0 | 2.0 | 0.05 | 0.12 | 0.12 | 94 | 1005.4 |
| 20260506140028 | 60 | 163 | 0.0 | 1.0 | 0.04 | 0.10 | 0.10 | 94 | 1005.6 |
| 20260506134521 | 60 | 235 | 0.0 | 0.0 | 0.04 | 0.08 | 0.08 | 94 | 1006.1 |
| 20260506133023 | 60 | 235 | 0.0 | 2.0 | 0.06 | 0.08 | 0.08 | 94 | 1005.9 |
| 20260506131522 | 60 | 263 | 0.0 | 1.0 | 0.06 | 0.07 | 0.07 | 94 | 1005.9 |
| 20260506130015 | 60 | 263 | 0.0 | 0.0 | 0.06 | 0.06 | 0.06 | 93 | 1006.0 |
| 20260506124511 | 60 | 263 | 0.0 | 0.0 | 0.04 | 0.04 | 0.04 | 92 | 1006.2 |
| 20260506123009 | 61 | 263 | 0.0 | 1.0 | 0.02 | 0.02 | 0.02 | 90 | 1006.3 |
| 20260506121507 | 62 | 263 | 0.0 | 1.0 | 0.01 | 0.01 | 0.01 | 88 | 1006.1 |
| 20260506120006 | 62 | 263 | 0.0 | 1.0 | 0.00 | 0.00 | 0.00 | 84 | 1005.8 |
| 20260506114505 | 63 | 263 | 0.0 | 3.0 | 0.00 | 0.00 | 0.00 | 80 | 1005.8 |
| 20260506113003 | 63 | 153 | 0.0 | 4.0 | 0.00 | 0.00 | 0.00 | 81 | 1005.7 |
| 20260506111559 | 62 | 26 | 0.0 | 6.0 | 0.00 | 0.00 | 0.00 | 80 | 1005.5 |
| 20260506104615 | 61 | 205 | 0.0 | 2.0 | 0.00 | 0.01 | 0.00 | 82 | 1005.3 |
| 20260506103054 | 60 | 184 | 0.0 | 1.0 | 0.00 | 0.01 | 0.00 | 82 | 1005.0 |
| 20260506101559 | 59 | 142 | 0.0 | 1.0 | 0.00 | 0.01 | 0.00 | 82 | 1004.9 |
| 20260506100052 | 59 | 142 | 0.0 | 2.0 | 0.00 | 0.01 | 0.00 | 81 | 1005.1 |
| 20260506094556 | 59 | 238 | 0.0 | 0.0 | 0.00 | 0.01 | 0.00 | 79 | 1005.1 |
| 20260506093047 | 59 | 238 | 0.0 | 1.0 | 0.00 | 0.01 | 0.00 | 79 | 1005.2 |
| 20260506091543 | 59 | 238 | 0.0 | 1.0 | 0.00 | 0.01 | 0.00 | 78 | 1005.4 |
| 20260506090043 | 60 | 237 | 0.0 | 0.0 | 0.00 | 0.01 | 0.00 | 77 | 1005.4 |
| 20260506084537 | 60 | 237 | 0.0 | 2.0 | 0.00 | 0.03 | 0.00 | 76 | 1005.4 |
| 20260506083036 | 60 | 240 | 0.0 | 1.0 | 0.00 | 0.03 | 0.00 | 75 | 1005.5 |
| 20260506081536 | 60 | 240 | 0.0 | 2.0 | 0.00 | 0.03 | 0.00 | 74 | 1005.5 |
| 20260506073024 | 61 | 30 | 0.0 | 0.0 | 0.00 | 0.04 | 0.00 | 72 | 1005.6 |
| 20260506071523 | 61 | 30 | 0.0 | 1.0 | 0.00 | 0.04 | 0.00 | 71 | 1005.6 |
| 20260506061513 | 62 | 53 | 0.0 | 2.0 | 0.00 | 0.04 | 0.00 | 67 | 1006.2 |